Change the Weather History Date:

Thursday, July 25, 2013

  Actual Average Record
Temperature  
Mean Temperature 83 °F -  
Max Temperature 89 °F 99 °F 107 °F (1963)
Min Temperature 77 °F 73 °F 68 °F (1973)
Cooling Degree Days 18    
Growing Degree Days 33 (Base 50)    
Moisture  
Dew Point 66 °F    
Average Humidity 59    
Maximum Humidity 73    
Minimum Humidity 40    
Precipitation  
Precipitation 0.00 in - - ()
Sea Level Pressure  
Sea Level Pressure 29.95 in    
Wind  
Wind Speed 5 mph (SSE)    
Max Wind Speed 12 mph    
Max Gust Speed -    
Visibility 10 miles    
Events Rain , Thunderstorm    
Averages and records for this station are not official NWS values.
T = Trace of Precipitation, MM = Missing Value Source: NWS Daily Summary

Daily Weather History Graph

Daily Weather History Graph

Search for Another Location

Airport or City:

Trip Planner

Search our weather history database for the weather conditions in past years. The results will help you decide how hot, cold, wet, or windy it might be!

Date:

Astronomy

Jul. 25, 2013 Rise Set
Actual Time 5:34 AM MST 7:25 PM MST
Civil Twilight 5:07 AM MST 7:52 PM MST
Nautical Twilight 4:34 AM MST 8:25 PM MST
Astronomical Twilight 3:59 AM MST 9:00 PM MST
Moon 9:26 PM MST (7/25) 8:51 AM MST (7/25)
Length of Visible Light 14h 45m
Length of Day
13h 51m
Waning Gibbous, 87% of the Moon is Illuminated
Jul 25
Waning Gibbous
Jul 29
Last Quarter
Aug 6
New
Aug 14
First Quarter
Aug 20
Full

Hourly Weather History & Observations

Time (MST) Temp. Heat Index Dew Point Humidity Pressure Visibility Wind Dir Wind Speed Gust Speed Precip Events Conditions
12:58 AM 78.6 °F - 66.4 °F 66% 29.86 in 10.0 mi SE 8.1 mph - N/A   Mostly Cloudy
1:58 AM 77.4 °F - 67.5 °F 71% 29.85 in 10.0 mi SE 5.8 mph - N/A   Scattered Clouds
2:58 AM 77.0 °F - 67.6 °F 73% 29.86 in 10.0 mi ESE 4.6 mph - N/A   Mostly Cloudy
3:58 AM 77.0 °F - 67.8 °F 73% 29.86 in 10.0 mi SE 4.6 mph - N/A   Scattered Clouds
4:58 AM 77.4 °F - 67.8 °F 72% 29.87 in 10.0 mi SSE 5.8 mph - N/A   Mostly Cloudy
5:58 AM 77.0 °F - 67.1 °F 71% 29.88 in 10.0 mi SSE 2.3 mph - N/A   Partly Cloudy
6:58 AM 77.9 °F - 67.8 °F 71% 29.90 in 10.0 mi SSE 4.6 mph - N/A   Clear
7:58 AM 79.5 °F - 68.2 °F 68% 29.92 in 10.0 mi South 4.6 mph - N/A   Partly Cloudy
8:58 AM 82.6 °F 85.7 °F 68.2 °F 62% 29.93 in 10.0 mi SSE 4.6 mph - N/A   Partly Cloudy
9:58 AM 85.5 °F 88.2 °F 66.9 °F 54% 29.92 in 10.0 mi ENE 4.6 mph - N/A   Clear
10:58 AM 86.5 °F 88.4 °F 65.3 °F 49% 29.92 in 10.0 mi Variable 4.6 mph - N/A   Scattered Clouds
11:43 AM 89.6 °F 91.1 °F 64.4 °F 43% 30.04 in 10.0 mi ENE 4.6 mph - N/A Thunderstorm Thunderstorm
11:58 AM 88.9 °F 90.3 °F 64.2 °F 44% 29.90 in 10.0 mi Variable 2.3 mph - N/A Thunderstorm Thunderstorm
11:59 AM 87.8 °F 89.4 °F 64.4 °F 46% 30.03 in 10.0 mi Variable 2.3 mph - N/A Thunderstorm Partly Cloudy
12:00 PM 87.8 °F 89.4 °F 64.4 °F 46% 30.04 in 10.0 mi Variable 3.5 mph - N/A Thunderstorm Thunderstorm
12:18 PM 89.6 °F 90.1 °F 62.6 °F 40% 30.03 in 10.0 mi SSE 3.5 mph - N/A Thunderstorm Partly Cloudy
12:58 PM 83.8 °F 84.9 °F 63.3 °F 50% 29.91 in 10.0 mi SSE 11.5 mph - N/A   Clear
1:58 PM 85.6 °F 86.1 °F 62.2 °F 45% 29.90 in 10.0 mi South 8.1 mph - N/A Thunderstorm Clear
2:44 PM 82.4 °F 84.6 °F 66.2 °F 58% 30.04 in 10.0 mi WNW 5.8 mph - N/A Thunderstorm Light Drizzle
2:53 PM 82.4 °F 84.6 °F 66.2 °F 58% 30.04 in 10.0 mi WNW 5.8 mph - N/A Thunderstorm Clear
2:58 PM 83.1 °F 85.0 °F 65.7 °F 55% 29.92 in 10.0 mi WNW 3.5 mph - 0.00 in Thunderstorm Clear
3:14 PM 82.4 °F 84.6 °F 66.2 °F 58% 30.03 in 10.0 mi WSW 4.6 mph - N/A   Light Drizzle
3:28 PM 82.4 °F 84.6 °F 66.2 °F 58% 30.04 in 10.0 mi SSW 4.6 mph - N/A Thunderstorm Clear
3:36 PM 84.2 °F 86.6 °F 66.2 °F 55% 30.05 in 10.0 mi South 3.5 mph - N/A   Light Drizzle
3:58 PM 83.3 °F 85.7 °F 66.4 °F 57% 29.92 in 10.0 mi South 4.6 mph - 0.00 in Rain Light Rain
4:17 PM 84.2 °F 85.6 °F 64.4 °F 51% 30.03 in 10.0 mi SSE 2.3 mph - N/A   Clear
4:24 PM 84.2 °F 86.6 °F 66.2 °F 55% 30.03 in 10.0 mi SSE 1.2 mph - N/A   Light Drizzle
4:34 PM 84.2 °F 85.6 °F 64.4 °F 51% 30.02 in 10.0 mi SSE 3.5 mph - N/A   Clear
4:58 PM 84.2 °F 86.1 °F 65.3 °F 53% 29.90 in 10.0 mi South 2.3 mph - 0.00 in   Clear
5:58 PM 83.8 °F 86.3 °F 66.4 °F 56% 29.91 in 10.0 mi ESE 2.3 mph - N/A   Clear
6:58 PM 83.5 °F 86.2 °F 67.1 °F 58% 29.91 in 10.0 mi South 3.5 mph - N/A   Partly Cloudy
7:58 PM 81.1 °F 84.5 °F 69.8 °F 68% 29.93 in 10.0 mi South 4.6 mph - N/A   Scattered Clouds
8:58 PM 81.0 °F 84.6 °F 70.2 °F 70% 29.93 in 10.0 mi SE 5.8 mph - N/A   Mostly Cloudy
9:58 PM 79.7 °F - 68.7 °F 69% 29.94 in 10.0 mi ESE 6.9 mph - N/A   Clear
10:58 PM 77.9 °F - 68.7 °F 73% 29.95 in 10.0 mi SSE 6.9 mph - N/A   Scattered Clouds
11:58 PM 77.7 °F - 67.8 °F 71% 29.94 in 10.0 mi SE 4.6 mph - N/A   Clear